CW4427 Weather Reports


Display with metric or nautical units.
time (UTC)temp
F
wind
direction
speed
MPH
gust
MPH
rain 1hr
in
rain 24hr
in
rain mn
in
humidity
%
barometer
mb
20260901221859 94 200 0.0 6.0 0.00 0.00 0.00 50 1015.3
20260901221359 93 90 3.0 3.0 0.00 0.00 0.00 52 1015.4
20260901220859 94 213 0.0 4.0 0.00 0.00 0.00 51 1015.4
20260901220359 93 97 1.0 4.0 0.00 0.00 0.00 52 1015.4
20260901215359 93 96 0.0 0.0 0.00 0.00 0.00 56 1015.5
20260901214859 93 96 0.0 1.0 0.00 0.00 0.00 55 1015.4
20260901214359 93 96 0.0 2.0 0.00 0.00 0.00 54 1015.4
20260901213859 94 96 0.0 2.0 0.00 0.00 0.00 53 1015.5
20260901213358 95 198 0.0 3.0 0.00 0.00 0.00 50 1015.5
20260901212859 96 197 0.0 5.0 0.00 0.00 0.00 47 1015.6
20260901212358 97 198 1.0 6.0 0.00 0.00 0.00 44 1015.7
20260901211858 98 197 5.0 6.0 0.00 0.00 0.00 44 1015.7
20260901211359 99 85 2.0 7.0 0.00 0.00 0.00 43 1015.6
20260901210858 99 114 3.0 7.0 0.00 0.00 0.00 44 1015.6
20260901210359 99 86 4.0 7.0 0.00 0.00 0.00 45 1015.7
20260901205358 99 195 1.0 5.0 0.00 0.00 0.00 47 1015.8
20260901204858 98 152 2.0 4.0 0.00 0.00 0.00 47 1015.9
20260901204358 98 122 1.0 4.0 0.00 0.00 0.00 45 1016.0
20260901203858 98 290 1.0 4.0 0.00 0.00 0.00 45 1016.1
20260901202858 97 314 2.0 3.0 0.00 0.00 0.00 47 1016.1
20260901202358 97 339 0.0 0.0 0.00 0.00 0.00 46 1016.1
20260901201858 96 69 0.0 2.0 0.00 0.00 0.00 47 1016.2
20260901201358 96 5 0.0 2.0 0.00 0.00 0.00 50 1016.5
20260901200858 95 128 0.0 2.0 0.00 0.00 0.00 54 1016.5
20260901200358 95 219 0.0 2.0 0.00 0.00 0.00 49 1016.4
20260901195858 95 118 0.0 5.0 0.00 0.00 0.00 51 1016.6
20260901195358 96 98 2.0 7.0 0.00 0.00 0.00 47 1016.5
20260901194858 96 142 3.0 7.0 0.00 0.00 0.00 48 1016.6
20260901194358 96 339 1.0 4.0 0.00 0.00 0.00 46 1016.5
20260901193858 97 111 0.0 4.0 0.00 0.00 0.00 45 1016.8
20260901193357 98 190 4.0 4.0 0.00 0.00 0.00 46 1016.7
20260901192858 98 21 1.0 5.0 0.00 0.00 0.00 47 1016.7
20260901192357 98 123 3.0 5.0 0.00 0.00 0.00 45 1016.7
20260901191858 97 137 2.0 4.0 0.00 0.00 0.00 50 1016.8
20260901191357 96 111 4.0 7.0 0.00 0.00 0.00 46 1016.9
20260901190858 98 155 0.0 7.0 0.00 0.00 0.00 45 1017.0
20260901190357 98 74 0.0 6.0 0.00 0.00 0.00 47 1017.1
20260901185858 98 268 0.0 5.0 0.00 0.00 0.00 45 1017.1
20260901185357 98 277 0.0 5.0 0.00 0.00 0.00 45 1017.1
20260901184857 100 182 5.0 7.0 0.00 0.00 0.00 46 1017.2
20260901184357 100 292 2.0 9.0 0.00 0.00 0.00 46 1017.3
20260901183857 99 246 1.0 9.0 0.00 0.00 0.00 46 1017.4
20260901183357 99 296 2.0 5.0 0.00 0.00 0.00 45 1017.4
20260901182857 99 280 2.0 4.0 0.00 0.00 0.00 49 1017.4
20260901182357 97 348 2.0 4.0 0.00 0.00 0.00 49 1017.5
20260901181857 98 97 2.0 4.0 0.00 0.00 0.00 48 1017.6
20260901181357 98 194 3.0 3.0 0.00 0.00 0.00 56 1017.7
20260901180857 97 36 1.0 4.0 0.00 0.00 0.00 51 1017.6
20260901180357 100 284 1.0 6.0 0.00 0.00 0.00 50 1017.8
20260901175857 98 306 1.0 7.0 0.00 0.00 0.00 53 1017.9
20260901175357 96 5 1.0 7.0 0.00 0.00 0.00 50 1017.9
20260901174857 96 15 1.0 6.0 0.00 0.00 0.00 53 1018.1
20260901174357 96 350 1.0 6.0 0.00 0.00 0.00 51 1018.2
20260901173857 96 355 0.0 7.0 0.00 0.00 0.00 54 1018.1
20260901173357 96 32 5.0 7.0 0.00 0.00 0.00 52 1018.2
20260901172857 96 25 2.0 5.0 0.00 0.00 0.00 52 1018.2
20260901172356 97 5 2.0 3.0 0.00 0.00 0.00 52 1018.3
20260901171856 97 316 2.0 3.0 0.00 0.00 0.00 52 1018.3
20260901171356 97 223 0.0 7.0 0.00 0.00 0.00 48 1018.5
20260901170856 97 123 1.0 7.0 0.00 0.00 0.00 47 1018.4
20260901170357 97 221 2.0 6.0 0.00 0.00 0.00 48 1018.6
20260901165856 95 206 3.0 5.0 0.00 0.00 0.00 53 1018.7
20260901165356 96 11 0.0 6.0 0.00 0.00 0.00 51 1018.7
20260901164856 96 151 2.0 6.0 0.00 0.00 0.00 51 1018.8
20260901164356 96 156 2.0 8.0 0.00 0.00 0.00 54 1018.8
20260901163856 97 230 2.0 8.0 0.00 0.00 0.00 50 1018.8
20260901163356 96 74 3.0 5.0 0.00 0.00 0.00 58 1018.8
20260901162856 95 17 3.0 5.0 0.00 0.00 0.00 55 1018.7
20260901162356 95 214 0.0 4.0 0.00 0.00 0.00 56 1018.8
20260901161856 94 140 0.0 4.0 0.00 0.00 0.00 56 1018.9
20260901161356 94 76 1.0 5.0 0.00 0.00 0.00 56 1019.0
20260901160856 96 34 0.0 5.0 0.00 0.00 0.00 52 1019.0
20260901155856 95 298 2.0 4.0 0.00 0.00 0.00 57 1019.0
20260901154356 94 360 0.0 6.0 0.00 0.00 0.00 56 1019.2
20260901153356 94 327 1.0 4.0 0.00 0.00 0.00 57 1019.2
20260901152856 95 351 2.0 3.0 0.00 0.00 0.00 59 1019.0
20260901152356 93 290 1.0 5.0 0.00 0.00 0.00 60 1019.1
20260901151856 93 255 0.0 5.0 0.00 0.00 0.00 62 1019.1
20260901151356 94 333 0.0 4.0 0.00 0.00 0.00 60 1019.1
20260901150856 93 321 2.0 4.0 0.00 0.00 0.00 61 1019.1
20260901150356 92 277 2.0 4.0 0.00 0.00 0.00 60 1019.1
20260901145856 91 339 0.0 4.0 0.00 0.00 0.00 62 1019.1
20260901144355 91 5 3.0 5.0 0.00 0.00 0.00 64 1019.2
20260901143855 91 323 1.0 5.0 0.00 0.00 0.00 64 1019.2
20260901143356 91 36 2.0 3.0 0.00 0.00 0.00 64 1019.2
20260901142856 91 282 0.0 4.0 0.00 0.00 0.00 67 1019.3
20260901142356 90 286 0.0 4.0 0.00 0.00 0.00 67 1019.4
20260901141856 90 289 2.0 3.0 0.00 0.00 0.00 67 1019.3
20260901141356 90 211 0.0 4.0 0.00 0.00 0.00 66 1019.4
20260901140856 89 286 0.0 4.0 0.00 0.00 0.00 68 1019.3
20260901140355 88 123 0.0 3.0 0.00 0.00 0.00 71 1019.3
20260901135856 87 123 0.0 2.0 0.00 0.00 0.00 72 1019.3
20260901135356 87 123 0.0 2.0 0.00 0.00 0.00 72 1019.4
20260901134856 86 123 0.0 0.0 0.00 0.00 0.00 74 1019.3
20260901134355 86 123 0.0 0.0 0.00 0.00 0.00 74 1019.4
20260901133855 85 123 0.0 0.0 0.00 0.00 0.00 76 1019.4
20260901132855 84 123 0.0 0.0 0.00 0.00 0.00 79 1019.2
20260901132355 83 123 0.0 0.0 0.00 0.00 0.00 81 1019.3
20260901131855 82 123 0.0 0.0 0.00 0.00 0.00 81 1019.2
20260901131355 82 123 0.0 0.0 0.00 0.00 0.00 81 1019.2
20260901130355 81 123 0.0 0.0 0.00 0.00 0.00 83 1019.1
20260901125855 80 123 0.0 0.0 0.00 0.00 0.00 84 1019.1
20260901125355 79 123 0.0 0.0 0.00 0.00 0.00 86 1019.0
20260901124855 79 123 0.0 2.0 0.00 0.00 0.00 87 1018.9
20260901124355 78 123 0.0 2.0 0.00 0.00 0.00 87 1018.9
20260901123855 77 71 0.0 0.0 0.00 0.00 0.00 88 1018.8
20260901123354 77 71 0.0 0.0 0.00 0.00 0.00 90 1018.8
20260901122855 76 71 0.0 0.0 0.00 0.00 0.00 90 1018.7
20260901122355 76 71 0.0 0.0 0.00 0.00 0.00 90 1018.7
20260901121854 75 71 0.0 0.0 0.00 0.00 0.00 91 1018.6
20260901120855 75 71 0.0 0.0 0.00 0.00 0.00 91 1018.6
20260901120354 75 71 0.0 0.0 0.00 0.00 0.00 91 1018.5
20260901115855 75 71 0.0 0.0 0.00 0.00 0.00 91 1018.5
20260901115354 75 71 0.0 0.0 0.00 0.00 0.00 91 1018.3
20260901114854 74 71 0.0 0.0 0.00 0.00 0.00 91 1018.3
20260901114354 74 71 0.0 0.0 0.00 0.00 0.00 91 1018.2
20260901113854 74 71 0.0 0.0 0.00 0.00 0.00 91 1018.1
20260901113354 74 71 0.0 0.0 0.00 0.00 0.00 92 1017.9
20260901112354 74 71 0.0 0.0 0.00 0.00 0.00 92 1018.0
20260901111854 74 71 0.0 0.0 0.00 0.00 0.00 92 1017.9
20260901111354 74 71 0.0 0.0 0.00 0.00 0.00 92 1017.8
20260901110854 74 71 0.0 0.0 0.00 0.00 0.00 91 1017.8
20260901110354 75 71 0.0 0.0 0.00 0.00 0.00 91 1017.7
20260901105854 74 71 0.0 0.0 0.00 0.00 0.00 91 1017.7
20260901105354 75 71 0.0 0.0 0.00 0.00 0.00 91 1017.9
20260901104854 75 71 0.0 0.0 0.00 0.00 0.00 91 1017.9
20260901104354 75 71 0.0 0.0 0.00 0.00 0.00 91 1017.8
20260901103354 75 71 0.0 0.0 0.00 0.00 0.00 91 1017.9
20260901102854 75 71 0.0 0.0 0.00 0.00 0.00 90 1017.9
20260901102353 75 71 0.0 0.0 0.00 0.00 0.00 91 1017.8
20260901101853 75 71 0.0 0.0 0.00 0.00 0.00 91 1017.8
20260901100854 75 71 0.0 0.0 0.00 0.00 0.00 90 1017.7
20260901100354 75 71 0.0 0.0 0.00 0.00 0.00 90 1017.7
20260901095853 75 71 0.0 0.0 0.00 0.00 0.00 90 1017.6
20260901095353 75 71 0.0 0.0 0.00 0.00 0.00 90 1017.6
20260901094854 75 71 0.0 0.0 0.00 0.00 0.00 90 1017.6
20260901094353 75 71 0.0 0.0 0.00 0.00 0.00 90 1017.5
20260901093853 75 71 0.0 0.0 0.00 0.00 0.00 90 1017.6
20260901093353 75 71 0.0 0.0 0.00 0.00 0.00 89 1017.6
20260901092854 75 71 0.0 0.0 0.00 0.00 0.00 89 1017.6
20260901092353 76 71 0.0 0.0 0.00 0.00 0.00 89 1017.4
20260901091854 76 71 0.0 0.0 0.00 0.00 0.00 89 1017.4
20260901091353 76 71 0.0 0.0 0.00 0.00 0.00 88 1017.4
20260901085853 76 71 0.0 0.0 0.00 0.00 0.00 88 1017.4
20260901085353 76 71 0.0 0.0 0.00 0.00 0.00 87 1017.5
20260901084853 77 71 0.0 0.0 0.00 0.00 0.00 87 1017.5
20260901084353 77 71 0.0 0.0 0.00 0.00 0.00 88 1017.4
20260901083853 76 71 0.0 0.0 0.00 0.00 0.00 88 1017.4
20260901082853 76 71 0.0 0.0 0.00 0.00 0.00 89 1017.2
20260901082353 76 71 0.0 0.0 0.00 0.00 0.00 88 1017.2
20260901081853 76 71 0.0 0.0 0.00 0.00 0.00 88 1017.2
20260901081353 76 71 0.0 0.0 0.00 0.00 0.00 88 1017.2
20260901080853 76 71 0.0 0.0 0.00 0.00 0.00 88 1017.2
20260901080353 76 71 0.0 0.0 0.00 0.00 0.00 88 1017.3
20260901075853 76 71 0.0 0.0 0.00 0.00 0.00 88 1017.4
20260901075353 76 71 0.0 0.0 0.00 0.00 0.00 87 1017.3
20260901074853 76 71 0.0 0.0 0.00 0.00 0.00 88 1017.2
20260901074353 76 71 0.0 0.0 0.00 0.00 0.00 88 1017.1
20260901073853 76 71 0.0 0.0 0.00 0.00 0.00 88 1017.1
20260901073353 76 71 0.0 0.0 0.00 0.00 0.00 87 1017.0
20260901072853 77 71 0.0 0.0 0.00 0.00 0.00 87 1017.2
20260901072353 77 71 0.0 0.0 0.00 0.00 0.00 87 1017.1
20260901071852 77 71 0.0 0.0 0.00 0.00 0.00 87 1017.2
20260901071353 77 71 0.0 0.0 0.00 0.00 0.00 87 1017.3
20260901070852 77 71 0.0 0.0 0.00 0.00 0.00 87 1017.2
20260901070352 77 71 0.0 0.0 0.00 0.00 0.00 87 1017.1
20260901065853 77 71 0.0 0.0 0.00 0.00 0.00 87 1017.1
20260901065352 77 71 0.0 0.0 0.00 0.00 0.00 86 1017.1
20260901064353 77 71 0.0 0.0 0.00 0.00 0.00 85 1017.1
20260901062853 77 71 0.0 0.0 0.00 0.00 0.00 84 1017.2
20260901062353 77 71 0.0 0.0 0.00 0.00 0.00 84 1017.2
20260901061853 78 71 0.0 0.0 0.00 0.00 0.00 85 1017.2
20260901060853 78 71 0.0 0.0 0.00 0.00 0.00 84 1017.2
20260901060353 78 71 0.0 0.0 0.00 0.00 0.00 84 1017.2
20260901055853 78 71 0.0 0.0 0.00 0.00 0.00 84 1017.3
20260901055353 78 71 0.0 0.0 0.00 0.00 0.00 83 1017.4
20260901054853 78 71 0.0 0.0 0.00 0.00 0.00 83 1017.4
20260901054353 78 71 0.0 0.0 0.00 0.00 0.00 83 1017.4
20260901053852 78 71 0.0 0.0 0.00 0.00 0.00 82 1017.3
20260901052852 79 71 0.0 0.0 0.00 0.00 0.00 82 1017.3
20260901052352 79 71 0.0 0.0 0.00 0.00 0.00 82 1017.2
20260901051852 79 71 0.0 0.0 0.00 0.00 0.00 82 1017.2
20260901051352 79 71 0.0 0.0 0.00 0.00 0.00 82 1017.1
20260901050852 79 71 0.0 0.0 0.00 0.00 0.00 81 1017.2
20260901050352 79 71 0.0 0.0 0.00 0.00 0.00 81 1017.3
20260901044352 79 71 0.0 2.0 0.00 0.00 0.00 80 1017.2
20260901042852 80 71 1.0 2.0 0.00 0.00 0.00 80 1017.2
20260901042351 80 71 0.0 0.0 0.00 0.00 0.00 79 1017.2
20260901041851 80 71 0.0 0.0 0.00 0.00 0.00 79 1017.1
20260901041351 80 71 0.0 0.0 0.00 0.00 0.00 78 1017.0
20260901040851 80 71 0.0 0.0 0.00 0.00 0.00 78 1017.0
20260901035851 80 71 0.0 0.0 0.00 0.00 0.00 78 1016.9
20260901035351 80 71 0.0 0.0 0.00 0.00 0.00 77 1016.9
20260901034351 81 71 0.0 0.0 0.00 0.00 0.00 76 1016.9
20260901033851 81 71 0.0 0.0 0.00 0.00 0.00 76 1016.9
20260901033351 81 71 0.0 0.0 0.00 0.00 0.00 76 1016.9
20260901032351 81 71 0.0 0.0 0.00 0.00 0.00 76 1017.0
20260901031851 81 71 0.0 0.0 0.00 0.00 0.00 76 1017.0
20260901031351 81 71 0.0 0.0 0.00 0.00 0.00 76 1017.0
20260901030851 81 71 0.0 0.0 0.00 0.00 0.00 76 1017.0
20260901025851 81 71 0.0 0.0 0.00 0.00 0.00 76 1017.0
20260901024851 81 71 0.0 0.0 0.00 0.00 0.00 76 1016.9
20260901023350 82 71 0.0 0.0 0.00 0.00 0.00 73 1016.8
20260901022851 82 71 0.0 0.0 0.00 0.00 0.00 73 1016.7
20260901022350 82 71 0.0 0.0 0.00 0.00 0.00 73 1016.7
20260901021350 82 71 0.0 0.0 0.00 0.00 0.00 72 1016.7
20260901020850 83 71 0.0 0.0 0.00 0.00 0.00 71 1016.6
20260901020350 83 71 0.0 0.0 0.00 0.00 0.00 71 1016.6
20260901015850 83 71 0.0 0.0 0.00 0.00 0.00 71 1016.5
20260901015350 83 71 0.0 0.0 0.00 0.00 0.00 71 1016.5
20260901014850 83 71 0.0 0.0 0.00 0.00 0.00 71 1016.5
20260901014350 83 71 0.0 0.0 0.00 0.00 0.00 70 1016.4
20260901013850 83 71 0.0 0.0 0.00 0.00 0.00 70 1016.3
20260901013350 84 71 0.0 0.0 0.00 0.00 0.00 70 1016.2
20260901012850 84 71 0.0 0.0 0.00 0.00 0.00 69 1016.2
20260901012350 84 71 0.0 0.0 0.00 0.00 0.00 69 1016.0
20260901011850 84 71 0.0 0.0 0.00 0.00 0.00 68 1016.0
20260901011350 84 71 0.0 0.0 0.00 0.00 0.00 68 1016.1
20260901010850 85 71 0.0 0.0 0.00 0.00 0.00 68 1016.0
20260901010350 85 71 0.0 0.0 0.00 0.00 0.00 66 1015.9
20260901005850 85 71 0.0 0.0 0.00 0.00 0.00 66 1015.9
20260901005350 85 71 0.0 0.0 0.00 0.00 0.00 66 1015.8
20260901004850 86 71 0.0 0.0 0.00 0.00 0.00 66 1015.6
20260901004350 86 71 0.0 0.0 0.00 0.00 0.00 65 1015.6
20260901003350 87 71 0.0 0.0 0.00 0.00 0.00 64 1015.5
20260901002850 87 71 0.0 0.0 0.00 0.00 0.00 64 1015.6
20260901002349 87 71 0.0 1.0 0.00 0.00 0.00 64 1015.6
20260901001850 88 71 0.0 2.0 0.00 0.00 0.00 65 1015.6
20260901001349 88 71 0.0 2.0 0.00 0.00 0.00 64 1015.6
20260901000849 88 71 0.0 0.0 0.00 0.00 0.00 63 1015.8
20260901000350 89 71 0.0 0.0 0.00 0.00 0.00 63 1015.8
20260831235849 90 71 0.0 0.0 0.00 0.00 0.00 61 1015.7
20260831235349 90 71 0.0 0.0 0.00 0.00 0.00 61 1015.6
20260831234850 91 100 0.0 0.0 0.00 0.00 0.00 59 1015.6
20260831234349 91 100 0.0 0.0 0.00 0.00 0.00 58 1015.7
20260831233849 92 100 0.0 0.0 0.00 0.00 0.00 56 1015.7
20260831233349 92 108 0.0 0.0 0.00 0.00 0.00 58 1015.7
20260831232849 93 108 0.0 0.0 0.00 0.00 0.00 56 1015.8
20260831232349 93 85 0.0 2.0 0.00 0.00 0.00 53 1015.6
20260831231849 94 94 0.0 3.0 0.00 0.00 0.00 53 1015.8
20260831231349 94 92 0.0 3.0 0.00 0.00 0.00 54 1015.8
20260831230849 94 42 1.0 4.0 0.00 0.00 0.00 50 1015.8
20260831230348 94 40 1.0 4.0 0.00 0.00 0.00 49 1015.8
20260831225848 95 62 3.0 4.0 0.00 0.00 0.00 51 1015.8
20260831224848 95 17 1.0 4.0 0.00 0.00 0.00 48 1015.8
20260831224348 95 28 3.0 7.0 0.00 0.00 0.00 49 1016.0
20260831223848 95 5 4.0 8.0 0.00 0.00 0.00 48 1015.9
20260831223348 95 80 0.0 8.0 0.00 0.00 0.00 48 1015.9